This is the latest recevied weather packets stored in our database for station/object G0SCV-10. If no packets are shown the sender has not sent any weather packets the latest 10 day(s).
| Time | Temp. | Humidity | Pressure | Rain* | Wind** | Luminosity | Snow |
|---|---|---|---|---|---|---|---|
| 1787784421 | 26.11° C | 64% | 1012.2 hPa | - | - | - | - |
| 1787783520 | 26.11° C | 64% | 1013.4 hPa | - | - | - | - |
| 1787782619 | 26.11° C | 64% | 1004.8 hPa | - | - | - | - |
| 1787781719 | 26.11° C | 63% | 1004.9 hPa | - | - | - | - |
| 1787780818 | 26.67° C | 63% | 1005 hPa | - | - | - | - |
| 1787779917 | 26.67° C | 63% | 1014.4 hPa | - | - | - | - |
| 1787779018 | 26.67° C | 63% | 1010.6 hPa | - | - | - | - |
| 1787778117 | 26.67° C | 63% | 1006 hPa | - | - | - | - |
| 1787777217 | 27.22° C | 62% | 1006.1 hPa | - | - | - | - |
| 1787776316 | 27.22° C | 62% | 1017 hPa | - | - | - | - |
| 1787775415 | 27.78° C | 62% | 1017.2 hPa | - | - | - | - |
| 1787774515 | 27.78° C | 62% | 1017 hPa | - | - | - | - |
| 1787773615 | 27.78° C | 61% | 1017 hPa | - | - | - | - |
| 1787772715 | 28.33° C | 61% | 1016.9 hPa | - | - | - | - |
| 1787771814 | 28.33° C | 61% | 1016.7 hPa | - | - | - | - |
| 1787770914 | 28.89° C | 60% | 1016.6 hPa | - | - | - | - |
| 1787770014 | 28.89° C | 60% | 1016.6 hPa | - | - | - | - |
| 1787769113 | 28.89° C | 60% | 1006.9 hPa | - | - | - | - |
| 1787768213 | 28.89° C | 60% | 1006.7 hPa | - | - | - | - |
| 1787767313 | 29.44° C | 59% | 1011.7 hPa | - | - | - | - |
| 1787766413 | 30° C | 58% | 1011.7 hPa | - | - | - | - |
| 1787765512 | 31.11° C | 57% | 1019.5 hPa | - | - | - | - |
| 1787764611 | 32.78° C | 55% | 1019.6 hPa | - | - | - | - |
| 1787763710 | 35.56° C | 52% | 1013.6 hPa | - | - | - | - |
| 1787762810 | 34.44° C | 54% | 1013.4 hPa | - | - | - | - |
* Rain since midnight (hover to see other rain measurements)
** Current wind speed in m/s (hover to see current wind gust speed)